When you browse on this site, cookies collect data to enhance your experience and personalize the content and advertising you see.
Visit our Privacy Policy to learn more. By continuing to use the site, you agree to this use of cookies and data.
  • In Hungary
  • List of Countries
  • For 7 days
  • Water Temperature
  • Satellite Maps
  • Weather Map
  • News
  • Weather Widgets
  • user-avatar
    Login

    Hourly Weather Spigiel

    Today, 17 January, Thursday

    Time Temperature Precipitation Wind Pressure Humidity
    00:00 -1°C° 0 mm 6 mps 738 mmHg 96%
    01:00 0°C° 0 mm 5 mps 737 mmHg 96%
    02:00 0°C° 0.1 mm 5 mps 737 mmHg 95%
    03:00 -1°C° 0.1 mm 6 mps 736 mmHg 94%
    04:00 -1°C° 0.1 mm 6 mps 736 mmHg 94%
    05:00 -1°C° 0.1 mm 6 mps 735 mmHg 93%
    06:00 -1°C° 0.1 mm 7 mps 735 mmHg 92%
    07:00 -1°C° 0 mm 7 mps 734 mmHg 91%
    08:00 -1°C° 0.1 mm 7 mps 734 mmHg 91%
    09:00 -1°C° 0.1 mm 7 mps 734 mmHg 90%
    10:00 -1°C° 0.1 mm 7 mps 734 mmHg 90%
    11:00 -1°C° 0.1 mm 7 mps 734 mmHg 90%
    12:00 -1°C° 0.1 mm 7 mps 735 mmHg 90%
    13:00 -1°C° 0.1 mm 6 mps 735 mmHg 90%
    14:00 -1°C° 0 mm 6 mps 735 mmHg 90%
    15:00 -1°C° 0 mm 6 mps 736 mmHg 89%
    16:00 0°C° 0 mm 5 mps 736 mmHg 88%
    17:00 0°C° 0 mm 5 mps 736 mmHg 88%
    18:00 0°C° 0 mm 5 mps 736 mmHg 87%
    19:00 -1°C° 0 mm 5 mps 736 mmHg 86%
    20:00 -1°C° 0 mm 5 mps 736 mmHg 87%
    21:00 -1°C° 0 mm 5 mps 736 mmHg 88%
    22:00 -2°C° 0 mm 4 mps 737 mmHg 89%
    23:00 -2°C° 0 mm 4 mps 736 mmHg 91%

    Tomorrow, 18 January, Friday

    Time Temperature Precipitation Wind Pressure Humidity
    00:00 -2°C° 0 mm 4 mps 736 mmHg 92%
    01:00 -2°C° 0 mm 4 mps 736 mmHg 94%
    02:00 -1°C° 0.7 mm 4 mps 736 mmHg 94%
    03:00 -1°C° 0.7 mm 4 mps 736 mmHg 94%
    04:00 -1°C° 0.7 mm 4 mps 735 mmHg 94%
    05:00 -1°C° 0.3 mm 5 mps 736 mmHg 92%
    06:00 -2°C° 0.3 mm 6 mps 736 mmHg 89%
    07:00 -2°C° 0.3 mm 6 mps 736 mmHg 87%
    08:00 -3°C° 0.2 mm 7 mps 737 mmHg 88%
    09:00 -4°C° 0.2 mm 7 mps 738 mmHg 89%
    10:00 -6°C° 0.2 mm 8 mps 739 mmHg 90%
    11:00 -6°C° 0.1 mm 7 mps 741 mmHg 88%
    12:00 -4°C° 0.1 mm 6 mps 742 mmHg 85%
    13:00 -4°C° 0.1 mm 6 mps 743 mmHg 82%
    14:00 -4°C° 0 mm 5 mps 744 mmHg 82%
    15:00 -5°C° 0 mm 5 mps 745 mmHg 83%
    16:00 -4°C° 0 mm 4 mps 746 mmHg 83%
    17:00 -4°C° 0 mm 4 mps 746 mmHg 83%
    18:00 -4°C° 0 mm 4 mps 747 mmHg 84%
    19:00 -4°C° 0 mm 4 mps 747 mmHg 85%
    20:00 -5°C° 0 mm 4 mps 748 mmHg 84%
    21:00 -5°C° 0 mm 4 mps 748 mmHg 83%
    22:00 -5°C° 0 mm 4 mps 749 mmHg 82%
    23:00 -5°C° 0 mm 4 mps 749 mmHg 82%

    Day after tomorrow, 19 January, Saturday

    Time Temperature Precipitation Wind Pressure Humidity
    00:00 -5°C° 0 mm 4 mps 749 mmHg 82%
    01:00 -7°C° 0 mm 4 mps 750 mmHg 81%
    02:00 -7°C° 0 mm 4 mps 750 mmHg 83%
    03:00 -7°C° 0 mm 4 mps 750 mmHg 85%
    04:00 -7°C° 0 mm 4 mps 750 mmHg 86%
    05:00 -7°C° 0 mm 4 mps 750 mmHg 88%
    06:00 -6°C° 0 mm 3 mps 751 mmHg 90%
    07:00 -6°C° 0 mm 3 mps 751 mmHg 92%
    08:00 -5°C° 0 mm 4 mps 751 mmHg 91%
    09:00 -5°C° 0 mm 4 mps 751 mmHg 90%
    10:00 -4°C° 0 mm 4 mps 752 mmHg 89%
    11:00 -4°C° 0 mm 4 mps 751 mmHg 87%
    12:00 -3°C° 0 mm 4 mps 751 mmHg 86%
    13:00 -2°C° 0 mm 4 mps 751 mmHg 84%
    14:00 -3°C° 0 mm 4 mps 751 mmHg 86%
    15:00 -4°C° 0 mm 3 mps 751 mmHg 88%
    16:00 -5°C° 0 mm 3 mps 751 mmHg 89%
    17:00 -5°C° 0 mm 3 mps 752 mmHg 90%
    18:00 -5°C° 0 mm 3 mps 752 mmHg 90%
    19:00 -5°C° 0 mm 3 mps 752 mmHg 90%
    20:00 -5°C° 0 mm 3 mps 752 mmHg 90%
    21:00 -6°C° 0 mm 3 mps 752 mmHg 91%
    22:00 -6°C° 0 mm 3 mps 752 mmHg 91%
    23:00 -6°C° 0 mm 3 mps 752 mmHg 91%

    20 January, Sunday

    Time Temperature Precipitation Wind Pressure Humidity
    00:00 -6°C° 0 mm 3 mps 752 mmHg 91%
    01:00 -6°C° 0 mm 3 mps 752 mmHg 92%
    02:00 -6°C° 0 mm 3 mps 752 mmHg 92%
    03:00 -6°C° 0 mm 3 mps 751 mmHg 93%
    04:00 -7°C° 0 mm 3 mps 751 mmHg 93%
    05:00 -7°C° 0 mm 3 mps 751 mmHg 93%
    06:00 -7°C° 0 mm 3 mps 751 mmHg 94%
    07:00 -7°C° 0 mm 3 mps 751 mmHg 94%
    08:00 -6°C° 0 mm 3 mps 751 mmHg 93%
    09:00 -6°C° 0 mm 3 mps 751 mmHg 92%
    10:00 -5°C° 0 mm 3 mps 750 mmHg 91%
    11:00 -4°C° 0 mm 3 mps 750 mmHg 89%
    12:00 -4°C° 0 mm 3 mps 750 mmHg 88%
    13:00 -2°C° 0 mm 3 mps 750 mmHg 87%
    14:00 -4°C° 0 mm 4 mps 750 mmHg 88%
    15:00 -4°C° 0 mm 4 mps 750 mmHg 90%
    16:00 -5°C° 0 mm 4 mps 750 mmHg 91%
    17:00 -4°C° 0.1 mm 4 mps 750 mmHg 92%
    18:00 -4°C° 0.1 mm 3 mps 750 mmHg 93%
    19:00 -2°C° 0.1 mm 3 mps 750 mmHg 94%
    20:00 -4°C° 0 mm 3 mps 751 mmHg 93%
    21:00 -4°C° 0 mm 2 mps 751 mmHg 91%
    22:00 -2°C° 0 mm 1 mps 751 mmHg 90%
    23:00 -3°C° 0 mm 1 mps 751 mmHg 89%

    21 January, Monday

    Time Temperature Precipitation Wind Pressure Humidity
    00:00 -5°C° 0 mm 2 mps 752 mmHg 88%
    01:00 -6°C° 0 mm 2 mps 752 mmHg 87%
    02:00 -6°C° 0 mm 2 mps 752 mmHg 86%
    03:00 -6°C° 0 mm 2 mps 752 mmHg 84%
    04:00 -6°C° 0 mm 2 mps 752 mmHg 83%
    05:00 -6°C° 0 mm 2 mps 753 mmHg 82%
    06:00 -6°C° 0 mm 2 mps 753 mmHg 81%
    07:00 -7°C° 0 mm 2 mps 753 mmHg 80%
    08:00 -6°C° 0 mm 2 mps 753 mmHg 80%
    09:00 -5°C° 0 mm 2 mps 754 mmHg 80%
    10:00 -5°C° 0 mm 2 mps 754 mmHg 80%
    11:00 -4°C° 0 mm 2 mps 754 mmHg 79%
    12:00 -3°C° 0 mm 2 mps 754 mmHg 79%
    13:00 -4°C° 0 mm 3 mps 754 mmHg 78%
    14:00 -4°C° 0 mm 2 mps 754 mmHg 80%
    15:00 -4°C° 0 mm 2 mps 754 mmHg 82%
    16:00 -5°C° 0 mm 2 mps 754 mmHg 84%
    17:00 -6°C° 0 mm 2 mps 754 mmHg 84%
    18:00 -6°C° 0 mm 2 mps 754 mmHg 84%
    19:00 -6°C° 0 mm 2 mps 754 mmHg 84%
    20:00 -6°C° 0 mm 2 mps 754 mmHg 85%
    21:00 -6°C° 0 mm 2 mps 754 mmHg 85%
    22:00 -7°C° 0 mm 2 mps 753 mmHg 86%
    23:00 -7°C° 0 mm 2 mps 753 mmHg 88%

    22 January, Tuesday

    Time Temperature Precipitation Wind Pressure Humidity
    00:00 -7°C° 0 mm 2 mps 753 mmHg 90%
    01:00 -7°C° 0 mm 2 mps 753 mmHg 93%
    02:00 -7°C° 0 mm 2 mps 753 mmHg 93%
    03:00 -7°C° 0 mm 2 mps 752 mmHg 94%
    04:00 -7°C° 0 mm 2 mps 752 mmHg 95%
    05:00 -7°C° 0 mm 2 mps 752 mmHg 95%
    06:00 -7°C° 0 mm 2 mps 752 mmHg 95%
    07:00 -7°C° 0 mm 2 mps 752 mmHg 95%
    08:00 -6°C° 0 mm 2 mps 751 mmHg 94%
    09:00 -6°C° 0 mm 2 mps 751 mmHg 94%
    10:00 -5°C° 0 mm 2 mps 751 mmHg 93%
    11:00 -5°C° 0 mm 2 mps 751 mmHg 91%
    12:00 -4°C° 0 mm 2 mps 751 mmHg 89%
    13:00 -4°C° 0 mm 2 mps 750 mmHg 88%
    14:00 -5°C° 0 mm 2 mps 750 mmHg 89%
    15:00 -5°C° 0 mm 2 mps 750 mmHg 90%
    16:00 -6°C° 0 mm 2 mps 750 mmHg 91%
    17:00 -7°C° 0 mm 2 mps 749 mmHg 90%
    18:00 -7°C° 0 mm 2 mps 749 mmHg 89%
    19:00 -9°C° 0 mm 3 mps 749 mmHg 88%
    20:00 -9°C° 0 mm 3 mps 749 mmHg 87%
    21:00 -9°C° 0 mm 3 mps 749 mmHg 86%
    22:00 -9°C° 0 mm 3 mps 749 mmHg 85%
    23:00 -9°C° 0 mm 3 mps 749 mmHg 85%
    Show more